Regional Weather Roundup
Issued by NWS

Home | Current Version | Previous Version | Text Only | Print | Product List | Glossary On
Versions: 1 2 3 4 5 6 7 8 9 10 11 12 13 14 15 16 17 18 19 20 21 22 23 24 25 26 27 28 29 30 31 32 33 34 35 36 37 38 39 40 41 42 43 44 45 46 47 48 49 50
000
ASUS43 KLOT 010810
RWRIL

ILLINOIS REGIONAL WEATHER ROUNDUP
NATIONAL WEATHER SERVICE CHICAGO/ROMEOVILLE IL
300 AM CDT WED OCT 01 2014

NOTE: "FAIR" INDICATES FEW OR NO CLOUDS BELOW 12,000 FEET WITH NO
SIGNIFICANT WEATHER AND/OR OBSTRUCTIONS TO VISIBILITY.

* THESE STATIONS ARE NOT UNDER NWS QUALITY CONTROL. THEY ALSO MAY NOT
  REPORT WEATHER SUCH AS PRECIPITATION OR FOG.

ILZ001-002-007-009-015-016-024-010900-
NORTHWEST ILLINOIS

CITY           SKY/WX    TMP DP  RH WIND       PRES   REMARKS
MOLINE         NOT AVBL
SAVANNA*       CLEAR     49  45  87 E3        29.96F
$$

ILZ003-004-008-010-011-017-018-010900-
NORTH CENTRAL ILLINOIS

CITY           SKY/WX    TMP DP  RH WIND       PRES   REMARKS
ROCKFORD       MOCLDY    51  47  86 E5        30.01F
FREEPORT*      MOCLDY    50  47  88 E7        29.99F
ROCHELLE*      CLEAR     48  46  93 E3        30.00F
DE KALB*       CLOUDY    49  46  90 E6        30.01S
PERU*          CLEAR     50  48  92 E7        29.99F
$$

ILZ005-006-012>014-019>023-010900-
NORTHEAST ILLINOIS

CITY           SKY/WX    TMP DP  RH WIND       PRES   REMARKS
CHICAGO-OHARE  CLOUDY    54  46  74 SE13      30.00S
CHICAGO-MIDWAY MOCLDY    56  46  69 SE6       30.00F
AURORA         CLOUDY    53  46  77 SE7       30.01R
LANSING*       CLEAR     48  45  88 E3        30.01S
JOLIET*        CLEAR     47  44  88 E3        30.01S
WAUKEGAN       CLOUDY    54  47  77 SE7       30.00S
DUPAGE AIRPORT CLOUDY    55  47  74 SE7       30.00R
KANKAKEE*      CLEAR     46  44  95 NE6       30.00F
WHEELING       CLOUDY    56  47  71 SE9       30.02F
MORRIS*        PTCLDY    50  48  92 E6        30.00S
ROMEOVILLE*    CLEAR     47  45  90 E3        30.01S
NORTHERLY ISL    N/A     56  48  74 E13         N/A
$$

LMZ740>746-010900-
SOUTHERN LAKE MICHIGAN

STATION/POSITION SKY/WX   TEMP    WIND        PRES    VSBY  WAVE
                          AIR SEA DIR/SP/G                  HT/PER
                          (F)     (DEG/KT/KT) (MB)    (MI)  (FT/S)
SOUTHERN BUOY              57 62  110/ 12/ 16 1016.4F         2/ 6
WAUKEGAN HARBOR            56     140/ 11/ 17   N/A
HARRISON CRIB              56     130/ 14/ 18   N/A
BURNHAM HARBOR             56      90/ 11/ 15   N/A
CALUMET HARBOR             55     100/  9/ 12 1014.8F
MICHIGAN CITY              53      70/  5/  6   N/A
MICHIGAN CITY 6N           56 64  110/ 10/ 12   N/A           2/ 2
ST. JOSEPH                 56 62   70/ 10/ 12   N/A           2/ 2
$$

ILZ025>027-034>036-040-047-049-050-058-095>099-010900-
WEST-CENTRAL ILLINOIS

CITY           SKY/WX    TMP DP  RH WIND       PRES   REMARKS
QUINCY         CLEAR     58  53  84 SE12      29.88F
GALESBURG*     PTCLDY    51  47  88 E10       29.93F
MACOMB*        CLEAR     52  49  89 E8        29.95S
JACKSONVILLE*  CLEAR     56  52  87 E7        29.93F FOG
PITTSFIELD*    CLEAR     58  55  87 E5        29.92S
$$

ILZ028>032-037-038-041>044-048-051>054-059>061-010900-
CENTRAL ILLINOIS

CITY           SKY/WX    TMP DP  RH WIND       PRES   REMARKS
PONTIAC        CLEAR     48  46  93 E5        29.99F
DECATUR        CLEAR     50  47  89 E7        29.96F
PEORIA         CLEAR     54  46  74 E10       29.95F
LACON*         CLEAR     49  46  87 E3        29.97F
LINCOLN*       CLEAR     52  48  85 E6        29.94F
SPRINGFIELD    CLEAR     53  49  86 E8        29.94F
TAYLORVILLE    CLEAR     52  48  87 E6        29.94F
$$

ILZ033-039-045-046-055>057-062-063-010900-
EAST-CENTRAL ILLINOIS

CITY           SKY/WX    TMP DP  RH WIND       PRES   REMARKS
CHAMPAIGN      CLEAR     50  47  89 E9        29.97F
DANVILLE*      CLEAR     48  46  93 E5        29.96F
RANTOUL*       CLEAR     50  46  85 E6        29.99S
MATTOON        CLEAR     51  48  89 CALM      29.95S
PARIS*         CLEAR     51  49  96 CALM      29.98S
$$

ILZ079-100>102-010900-
SOUTHWEST ILLINOIS

CITY           SKY/WX    TMP DP  RH WIND       PRES   REMARKS
ALTON          CLEAR     60  56  88 E6        29.91F
BELLEVILLE     CLEAR     60  60  99 NE3       29.90F
CAHOKIA*       CLEAR     64  60  87 E5        29.90S
SPARTA*        CLEAR     63  59  87 E7        29.91F
$$

ILZ064>066-069>071-074>076-080>082-084>086-088>090-092>094-010900-
SOUTH-CENTRAL ILLINOIS

CITY           SKY/WX    TMP DP  RH WIND       PRES   REMARKS
CARBONDALE     PTCLDY    57  55  93 N3        29.90F FOG
CAIRO*         CLEAR     58  56  92 CALM      29.90S FOG
EFFINGHAM*     RAIN      56  49  78 E5        29.94F
MARION         CLEAR     64  59  82 E5        29.91F
CENTRALIA*     CLEAR     59  56  88 E5        29.92S
SALEM*         CLEAR     61  58  88 E3        29.93S
METROPOLIS*    CLEAR     55  54  99 CALM      29.89S
$$

ILZ067-068-072-073-078-083-087-091-010900-
SOUTHEAST ILLINOIS

CITY           SKY/WX    TMP DP  RH WIND       PRES   REMARKS
LAWRENCEVILLE  CLEAR     57  54  89 NE6       29.95F
FLORA*         CLEAR     57  53  88 CALM      29.94S
FAIRFIELD*     CLEAR     61  57  88 CALM      29.92F
HARRISBURG*    CLEAR     63  61  94 NE3       29.92F
ROBINSON*      CLEAR     56  53  92 E5        29.96S
CARMI*         CLEAR     58  57  98 CALM      29.92S FOG
$$

ABBREVIATIONS USED IN REMARKS
   TC - TEMPERATURE IN CELSIUS
  WCI - WIND CHILL INDEX
   HX - HEAT INDEX
  VSB - VISIBILITY
$$



USA.gov is the U.S. government's official web portal to all federal, state and local government web resources and services.